Location: Claflin County Park
(44.8478°N, 87.5507°W)
Time: 20:36:04
(UTC+00:00)

Cosmos 1428 Rocket - Visible Passes

Search period start: 16 March 2026 00:00
Search period end: 26 March 2026 00:00
Orbit: 946 x 987 km, 82.9° (Epoch: 16 March)

Date Brightness Start Highest point End Pass type
(mag) Time Alt. Az. Time Alt. Az. Time Alt. Az.
16 Mar 5.6 00:17:34 10° SSW 00:23:27 50° WNW 00:29:24 10° N visible
16 Mar 6.7 09:25:25 10° NNE 09:30:25 25° ENE 09:35:26 10° ESE visible
16 Mar 4.6 11:09:56 10° NNW 11:16:01 57° W 11:22:08 10° S visible
17 Mar 6.6 00:41:11 10° SW 00:46:28 30° WNW 00:51:49 10° N visible
17 Mar 5.8 09:47:41 10° N 09:53:31 40° ENE 09:59:21 10° SE visible
18 Mar 7.3 01:05:32 10° WSW 01:09:40 19° WNW 01:13:50 10° NNW visible
18 Mar 7.5 08:28:13 10° NE 08:29:59 11° ENE 08:31:44 10° ENE visible
18 Mar 4.9 10:10:14 10° N 10:16:27 67° E 10:22:41 10° SSE visible
19 Mar 7.8 01:31:36 10° WNW 01:33:03 11° WNW 01:34:30 10° NW visible
19 Mar 7.0 08:49:02 10° NNE 08:53:21 19° ENE 08:57:40 10° ESE visible
19 Mar 4.4 10:33:01 10° NNW 10:39:15 76° W 10:45:31 10° S visible
20 Mar 6.2 09:11:04 10° N 09:16:32 31° ENE 09:22:01 10° SE visible
20 Mar 4.8 10:56:01 10° NNW 11:01:54 45° W 11:07:49 10° SSW visible
21 Mar 7.1 00:27:44 10° WSW 00:32:35 24° WNW 00:37:30 10° NNW visible
21 Mar 5.3 09:33:29 10° N 09:39:34 50° ENE 09:45:39 10° SSE visible
21 Mar 5.4 11:19:18 10° NNW 11:24:25 27° W 11:29:33 10° SW visible
22 Mar 7.4 00:52:34 10° W 00:55:51 15° WNW 00:59:10 10° NNW visible
22 Mar 7.2 08:12:56 10° NNE 08:16:14 14° ENE 08:19:31 10° E visible
22 Mar 4.5 09:56:09 10° N 10:02:27 83° E 10:08:44 10° S visible
23 Mar 6.6 08:34:34 10° NNE 08:39:31 24° ENE 08:44:28 10° ESE visible
23 Mar 4.5 10:19:01 10° NNW 10:25:10 60° W 10:31:20 10° S visible
24 Mar 5.8 08:56:49 10° N 09:02:38 39° ENE 09:08:27 10° SE visible
24 Mar 5.0 10:42:09 10° NNW 10:47:45 36° W 10:53:23 10° SSW visible
25 Mar 7.3 07:37:39 10° NE 07:39:03 11° ENE 07:40:26 10° ENE visible
25 Mar 4.9 09:19:20 10° N 09:25:36 64° E 09:31:49 10° SSE visible
25 Mar 5.6 11:05:39 10° NW 11:10:12 22° W 11:14:46 10° SW visible
